Location: Wien
(48.2320°N, 16.3586°E)
Time: 02:44:40
(UTC+01:00)

ISS - Visible Passes

Search period start: 08 December 2021 00:00
Search period end: 18 December 2021 00:00
Orbit: 417 x 422 km, 51.6° (Epoch: 07 December)

Date Brightness Start Highest point End Pass type
(mag) Time Alt. Az. Time Alt. Az. Time Alt. Az.
08 Dec -0.4 18:06:45 10° WSW 18:07:43 11° SW 18:08:40 10° SSW visible
09 Dec -0.7 17:18:16 10° W 17:20:32 17° SW 17:22:49 10° S visible
16 Dec 0.1 06:57:51 10° SSE 06:58:43 11° SE 06:59:36 10° ESE visible
